Terug naar catalogus

ARIANE 2 R/B

ActiefHEO
NORAD 19622·ROCKET BODY·🇫🇷 France

Gelanceerd Oct 28, 1988 vanaf Guiana Space Centre

Loading…

Volgende Passages (komende 24 uur)

TLE

VersSource: Space-Track

Epoch: Sep 14, 2026, 18:05 UTC

1 19622U 88098B   26257.75347549  .00000945  00000-0  52155-3 0  9998
2 19622   3.8132  98.3553 5877842 357.1454   0.6488  4.16027304429910

Volg ARIANE 2 R/B in realtime met AllMySat

Download on the App Store